Weather History for KCPC - February, 2014

Change the Weather History Date:

Monday, February 10, 2014

  Actual Average (KLBT) Record (KLBT)
Temperature  
Mean Temperature 46 °F 46 °F  
Max Temperature 54 °F 57 °F 70 °F (2001)
Min Temperature 37 °F 35 °F 21 °F (2006)
Degree Days  
Heating Degree Days 20 19  
Month to date heating degree days 200  
Since 1 July heating degree days 1919  
Cooling Degree Days 0 0  
Month to date cooling degree days 0  
Year to date cooling degree days 1  
Moisture  
Dew Point 35 °F    
Average Humidity 67    
Maximum Humidity 95    
Minimum Humidity 44    
Precipitation  
Precipitation 0.00 in 0.10 in 0.68 in (2003)
Month to date precipitation 0.90  
Year to date precipitation 3.87  
Sea Level Pressure  
Sea Level Pressure 30.11 in    
Wind  
Wind Speed 4 mph (NNE)    
Max Wind Speed 12 mph    
Max Gust Speed 17 mph    
Visibility 10 miles    
Events      
T = Trace of Precipitation, MM = Missing Value Source: NWS Daily Summary

Daily Weather History Graph

Daily Weather History Graph

Search for Another Location

Airport or City:

Trip Planner

Search our weather history database for the weather conditions in past years. The results will help you decide how hot, cold, wet, or windy it might be!

Date:

Astronomy

Feb. 10, 2014 Rise Set
Actual Time 7:04 AM EST 5:53 PM EST
Civil Twilight 6:38 AM EST 6:19 PM EST
Nautical Twilight 6:09 AM EST 6:49 PM EST
Astronomical Twilight 5:40 AM EST 7:18 PM EST
Moon 2:25 PM EST (2/10) 3:52 AM EST (2/10)
Length of Visible Light 11h 40m
Length of Day
10h 48m
Waxing Gibbous, 84% of the Moon is Illuminated
Feb 10
Waxing Gibbous
Feb 14
Full
Feb 22
Last Quarter
Mar 1
New
Mar 8
First Quarter

Hourly Weather History & Observations

Time (EST) Temp. Windchill Dew Point Humidity Pressure Visibility Wind Dir Wind Speed Gust Speed Precip Events Conditions
12:15 AM 48.2 °F - 38.8 °F 70% 30.05 in 10.0 mi Calm Calm - N/A   Clear
12:35 AM 46.9 °F - 38.5 °F 72% 30.05 in 10.0 mi Calm Calm - N/A   Clear
12:55 AM 46.6 °F - 38.3 °F 73% 30.04 in 10.0 mi Calm Calm - N/A   Clear
1:15 AM 46.4 °F 45.2 °F 38.3 °F 73% 30.04 in 10.0 mi SW 3.5 mph - N/A   Clear
1:35 AM 46.8 °F - 38.3 °F 72% 30.03 in 10.0 mi SW 3.5 mph - N/A   Clear
1:55 AM 47.1 °F - 37.9 °F 70% 30.03 in 10.0 mi SW 3.5 mph - N/A   Clear
2:15 AM 47.3 °F - 37.8 °F 69% 30.03 in 10.0 mi WSW 3.5 mph - N/A   Clear
2:35 AM 46.9 °F - 37.8 °F 70% 30.03 in 10.0 mi Calm Calm - N/A   Clear
2:55 AM 45.9 °F - 37.8 °F 73% 30.03 in 10.0 mi Calm Calm - N/A   Clear
3:15 AM 44.8 °F - 37.8 °F 76% 30.03 in 10.0 mi Calm Calm - N/A   Clear
3:35 AM 43.2 °F - 37.4 °F 80% 30.03 in 10.0 mi Calm Calm - N/A   Clear
3:55 AM 41.9 °F 40.0 °F 37.4 °F 84% 30.03 in 10.0 mi SW 3.5 mph - N/A   Clear
4:15 AM 40.8 °F - 36.7 °F 85% 30.04 in 10.0 mi Calm Calm - N/A   Clear
4:35 AM 39.6 °F - 36.7 °F 89% 30.04 in 10.0 mi Calm Calm - N/A   Clear
4:55 AM 38.5 °F - 36.5 °F 93% 30.05 in 10.0 mi Calm Calm - N/A   Clear
5:15 AM 38.7 °F - 36.5 °F 92% 30.05 in 10.0 mi Calm Calm - N/A   Clear
5:35 AM 39.2 °F - 36.9 °F 91% 30.06 in 10.0 mi Calm Calm - N/A   Clear
5:55 AM 38.7 °F - 36.3 °F 91% 30.05 in 10.0 mi Calm Calm - N/A   Clear
6:15 AM 38.1 °F - 36.7 °F 95% 30.04 in 10.0 mi Calm Calm - N/A   Clear
6:35 AM 37.4 °F - 36.1 °F 95% 30.05 in 7.0 mi Calm Calm - N/A   Clear
6:55 AM 38.5 °F - 36.9 °F 94% 30.06 in 7.0 mi Calm Calm - N/A   Clear
7:15 AM 39.6 °F - 37.8 °F 93% 30.08 in 7.0 mi Calm Calm - N/A   Clear
7:35 AM 40.5 °F - 38.3 °F 92% 30.11 in 7.0 mi Calm Calm - N/A   Clear
7:55 AM 43.0 °F 40.3 °F 39.0 °F 86% 30.11 in 10.0 mi NNE 4.6 mph - N/A   Clear
8:15 AM 43.9 °F 42.3 °F 38.7 °F 82% 30.13 in 10.0 mi North 3.5 mph - N/A   Clear
8:35 AM 44.2 °F 41.8 °F 37.9 °F 79% 30.15 in 10.0 mi NNE 4.6 mph - N/A   Clear
8:55 AM 44.8 °F 42.4 °F 37.4 °F 75% 30.15 in 10.0 mi NE 4.6 mph - N/A   Clear
9:15 AM 45.0 °F 41.2 °F 36.5 °F 72% 30.16 in 10.0 mi NNE 6.9 mph - N/A   Scattered Clouds
9:35 AM 46.6 °F - 35.4 °F 65% 30.16 in 10.0 mi NNE 8.1 mph - N/A   Mostly Cloudy
9:55 AM 46.4 °F 41.9 °F 34.9 °F 64% 30.15 in 10.0 mi NE 9.2 mph 16.1 mph N/A   Overcast
10:15 AM 46.8 °F - 34.0 °F 61% 30.14 in 10.0 mi NE 9.2 mph 17.3 mph N/A   Overcast
10:35 AM 47.7 °F - 33.6 °F 58% 30.14 in 10.0 mi NE 11.5 mph - N/A   Mostly Cloudy
10:55 AM 48.9 °F - 32.5 °F 53% 30.13 in 10.0 mi NE 10.4 mph - N/A   Clear
11:15 AM 50.4 °F - 32.5 °F 50% 30.14 in 10.0 mi NE 10.4 mph - N/A   Clear
11:35 AM 50.9 °F - 33.4 °F 51% 30.13 in 10.0 mi NE 9.2 mph - N/A   Mostly Cloudy
11:55 AM 51.3 °F - 33.1 °F 50% 30.12 in 10.0 mi NNE 5.8 mph - N/A   Scattered Clouds
12:15 PM 52.5 °F - 34.5 °F 50% 30.12 in 10.0 mi North 8.1 mph - N/A   Scattered Clouds
12:35 PM 52.7 °F - 34.7 °F 50% 30.11 in 10.0 mi North 4.6 mph - N/A   Mostly Cloudy
12:55 PM 52.5 °F - 33.8 °F 49% 30.10 in 10.0 mi NNE 6.9 mph - N/A   Overcast
1:15 PM 53.4 °F - 34.3 °F 48% 30.10 in 10.0 mi NE 6.9 mph - N/A   Overcast
1:35 PM 53.4 °F - 34.2 °F 48% 30.09 in 10.0 mi NE 10.4 mph - N/A   Mostly Cloudy
1:55 PM 54.1 °F - 34.5 °F 48% 30.09 in 10.0 mi NE 9.2 mph - N/A   Scattered Clouds
2:15 PM 54.5 °F - 34.5 °F 47% 30.07 in 10.0 mi East 6.9 mph - N/A   Clear
2:35 PM 53.6 °F - 33.6 °F 47% 30.07 in 10.0 mi ENE 6.9 mph - N/A   Clear
2:55 PM 54.0 °F - 32.5 °F 44% 30.08 in 10.0 mi NNE 6.9 mph - N/A   Clear
3:15 PM 53.2 °F - 32.2 °F 45% 30.08 in 10.0 mi NNE 6.9 mph - N/A   Clear
3:35 PM 52.7 °F - 32.9 °F 47% 30.09 in 10.0 mi NNE 4.6 mph - N/A   Mostly Cloudy
3:55 PM 52.3 °F - 32.9 °F 48% 30.09 in 10.0 mi NNE 5.8 mph - N/A   Overcast
4:15 PM 51.1 °F - 32.0 °F 48% 30.10 in 10.0 mi NNE 4.6 mph - N/A   Overcast
4:35 PM 50.9 °F - 32.0 °F 48% 30.11 in 10.0 mi NNE 5.8 mph - N/A   Overcast
4:55 PM 50.4 °F - 32.0 °F 49% 30.11 in 10.0 mi NNE 4.6 mph - N/A   Overcast
5:15 PM 50.0 °F - 32.0 °F 50% 30.11 in 10.0 mi NNE 6.9 mph - N/A   Overcast
5:35 PM 49.5 °F - 31.8 °F 51% 30.12 in 10.0 mi NNE 8.1 mph - N/A   Overcast
5:55 PM 49.1 °F - 31.1 °F 50% 30.13 in 10.0 mi NE 6.9 mph - N/A   Overcast
6:15 PM 48.2 °F - 31.1 °F 52% 30.14 in 10.0 mi NNE 8.1 mph - N/A   Overcast
6:35 PM 47.5 °F - 31.1 °F 53% 30.14 in 10.0 mi NE 9.2 mph - N/A   Overcast
6:55 PM 46.8 °F - 31.6 °F 56% 30.15 in 10.0 mi NNE 8.1 mph - N/A   Overcast
7:15 PM 46.4 °F 41.9 °F 32.0 °F 57% 30.16 in 10.0 mi NNE 9.2 mph - N/A   Overcast
7:35 PM 45.9 °F 42.3 °F 32.7 °F 60% 30.16 in 10.0 mi NE 6.9 mph - N/A   Overcast
7:55 PM 45.5 °F 40.3 °F 33.6 °F 63% 30.16 in 10.0 mi NNE 10.4 mph 16.1 mph N/A   Overcast
8:15 PM 45.1 °F 40.8 °F 33.8 °F 65% 30.16 in 10.0 mi NE 8.1 mph - N/A   Overcast
8:35 PM 44.8 °F 39.9 °F 33.3 °F 64% 30.17 in 10.0 mi NNE 9.2 mph - N/A   Overcast
8:55 PM 44.1 °F 40.8 °F 33.1 °F 65% 30.17 in 10.0 mi NNE 5.8 mph - N/A   Overcast
9:15 PM 43.7 °F 39.7 °F 32.7 °F 65% 30.18 in 10.0 mi NE 6.9 mph - N/A   Overcast
9:35 PM 43.2 °F 37.9 °F 32.2 °F 65% 30.18 in 10.0 mi NE 9.2 mph - N/A   Overcast
9:55 PM 42.8 °F 37.5 °F 32.0 °F 66% 30.18 in 10.0 mi NNE 9.2 mph 17.3 mph N/A   Overcast
10:15 PM 42.3 °F 37.9 °F 32.0 °F 67% 30.19 in 10.0 mi NE 6.9 mph - N/A   Overcast
10:35 PM 41.9 °F 35.9 °F 32.0 °F 68% 30.20 in 10.0 mi NNE 10.4 mph - N/A   Overcast
10:55 PM 41.4 °F 36.2 °F 32.2 °F 70% 30.21 in 10.0 mi NE 8.1 mph - N/A   Overcast
11:15 PM 40.1 °F 34.7 °F 33.1 °F 76% 30.21 in 10.0 mi NE 8.1 mph - N/A   Drizzle
11:35 PM 38.8 °F 33.2 °F 34.9 °F 86% 30.21 in 7.0 mi NNE 8.1 mph - N/A   Overcast
11:55 PM 38.3 °F 33.2 °F 35.1 °F 88% 30.20 in 5.0 mi NE 6.9 mph - N/A   Overcast